PROPCUBE 1 (FLORA)

Last updated on Sun Dec 14 2025 00:03:50 GMT+0000 (Coordinated Universal Time)

1 40976U 15058N 25347.17647508 .00006473 00000+0 60649-3 0 9991 2 40976 64.7736 151.2153 0136734 133.7822 227.4699 14.87986617 88573
UTC large
Height (km)
Speed (km/s)
/
Latitude / Longitude
Inclination (degrees)
Orbital Period (minutes)
Azimuth
Elevation
Range (km)
Doppler Factor

Next 0 passes for location: London (51.5072 / 0.1276)

Sorry there are no passes over London.